Вернуться в каталог

SL-8 DEB

АктивенLEO
NORAD 21254·DEBRIS·🇷🇺 Russia

Запущен Feb 12, 1991 с Plesetsk Cosmodrome

Loading…

Ближайшие Пролёты (ближайшие 24 часа)

TLE

СвежийSource: Space-Track

Эпоха: Sep 14, 2026, 08:23 UTC

1 21254U 91009BM  26257.34932632 -.00000031  00000-0 -10467-3 0  9994
2 21254  73.8920  28.1640 0189238 357.9333  29.0893 12.39411787607287

Отслеживайте SL-8 DEB в реальном времени с AllMySat

Download on the App Store